TimeMST,TemperatureF,Dew PointF,Humidity,Sea Level PressureIn,VisibilityMPH,Wind Direction,Wind SpeedMPH,Gust SpeedMPH,PrecipitationIn,Events,Conditions,WindDirDegrees,DateUTC
12:15 AM,46.4,42.8,87,30.04,10.0,Calm,Calm,-,N/A,,Overcast,0,2012-11-27 07:15:00
12:55 AM,44.6,42.8,93,30.04,10.0,Calm,Calm,-,N/A,,Overcast,0,2012-11-27 07:55:00
1:15 AM,46.4,42.8,87,30.04,10.0,Calm,Calm,-,N/A,,Overcast,0,2012-11-27 08:15:00
1:35 AM,46.4,42.8,87,30.04,10.0,Calm,Calm,-,N/A,,Overcast,0,2012-11-27 08:35:00
1:55 AM,44.6,42.8,93,30.03,10.0,Calm,Calm,-,N/A,,Overcast,0,2012-11-27 08:55:00
2:15 AM,44.6,42.8,93,30.03,10.0,Calm,Calm,-,N/A,,Overcast,0,2012-11-27 09:15:00
2:35 AM,44.6,42.8,93,30.03,10.0,Calm,Calm,-,N/A,,Overcast,0,2012-11-27 09:35:00
2:55 AM,46.4,42.8,87,30.03,10.0,Calm,Calm,-,N/A,,Overcast,0,2012-11-27 09:55:00
3:15 AM,46.4,42.8,87,30.03,10.0,Calm,Calm,-,N/A,,Overcast,0,2012-11-27 10:15:00
3:35 AM,46.4,44.6,93,30.03,10.0,Calm,Calm,-,N/A,,Overcast,0,2012-11-27 10:35:00
3:55 AM,46.4,44.6,93,30.03,10.0,Calm,Calm,-,N/A,,Overcast,0,2012-11-27 10:55:00
4:15 AM,46.4,44.6,93,30.03,10.0,Calm,Calm,-,N/A,,Overcast,0,2012-11-27 11:15:00
4:35 AM,46.4,44.6,93,30.03,10.0,Calm,Calm,-,N/A,,Overcast,0,2012-11-27 11:35:00
4:55 AM,48.2,42.8,82,30.02,10.0,East,4.6,-,N/A,,Overcast,80,2012-11-27 11:55:00
5:15 AM,48.2,42.8,82,30.02,10.0,Calm,Calm,-,N/A,,Overcast,0,2012-11-27 12:15:00
5:35 AM,46.4,42.8,87,30.02,10.0,Calm,Calm,-,N/A,,Overcast,0,2012-11-27 12:35:00
5:55 AM,48.2,41.0,76,30.01,10.0,Calm,Calm,-,N/A,,Overcast,0,2012-11-27 12:55:00
6:15 AM,46.4,42.8,87,30.02,10.0,Calm,Calm,-,N/A,,Overcast,0,2012-11-27 13:15:00
6:35 AM,46.4,44.6,93,30.02,10.0,Calm,Calm,-,N/A,,Overcast,0,2012-11-27 13:35:00
6:55 AM,48.2,42.8,82,30.02,10.0,Calm,Calm,-,N/A,,Overcast,0,2012-11-27 13:55:00
7:15 AM,46.4,42.8,87,30.02,10.0,Calm,Calm,-,N/A,,Overcast,0,2012-11-27 14:15:00
7:35 AM,46.4,42.8,87,30.02,10.0,East,4.6,-,N/A,,Overcast,90,2012-11-27 14:35:00
7:55 AM,44.6,42.8,93,30.02,10.0,Calm,Calm,-,N/A,,Overcast,0,2012-11-27 14:55:00
8:35 AM,44.6,39.2,81,30.02,10.0,Calm,Calm,-,N/A,,Clear,0,2012-11-27 15:35:00
8:55 AM,46.4,39.2,76,30.03,10.0,East,8.1,-,N/A,,Clear,80,2012-11-27 15:55:00
9:15 AM,44.6,41.0,87,30.03,10.0,Calm,Calm,-,N/A,,Clear,0,2012-11-27 16:15:00
9:35 AM,42.8,41.0,93,30.03,7.0,SE,3.5,-,N/A,,Clear,140,2012-11-27 16:35:00
9:55 AM,44.6,42.8,93,30.03,10.0,Calm,Calm,-,N/A,,Clear,0,2012-11-27 16:55:00
10:15 AM,44.6,42.8,93,30.03,10.0,Calm,Calm,-,N/A,,Clear,0,2012-11-27 17:15:00
10:35 AM,44.6,42.8,93,30.02,10.0,Calm,Calm,-,N/A,,Clear,0,2012-11-27 17:35:00
10:55 AM,46.4,42.8,87,30.01,10.0,Calm,Calm,-,N/A,,Clear,0,2012-11-27 17:55:00
11:15 AM,48.2,44.6,87,30.00,10.0,SSE,3.5,-,N/A,,Clear,160,2012-11-27 18:15:00
11:35 AM,48.2,42.8,82,30.00,10.0,South,3.5,-,N/A,,Clear,170,2012-11-27 18:35:00
11:55 AM,50.0,42.8,76,30.00,10.0,Calm,Calm,-,N/A,,Clear,0,2012-11-27 18:55:00
12:15 PM,51.8,42.8,71,29.99,10.0,Calm,Calm,-,N/A,,Clear,0,2012-11-27 19:15:00
12:35 PM,51.8,41.0,67,29.98,10.0,Calm,Calm,-,N/A,,Clear,0,2012-11-27 19:35:00
12:55 PM,53.6,41.0,62,29.97,10.0,Calm,Calm,-,N/A,,Clear,0,2012-11-27 19:55:00
1:15 PM,53.6,44.6,72,29.96,10.0,SSE,3.5,-,N/A,,Clear,160,2012-11-27 20:15:00
1:35 PM,55.4,44.6,67,29.96,10.0,Calm,Calm,-,N/A,,Clear,0,2012-11-27 20:35:00
1:55 PM,55.4,44.6,67,29.95,10.0,West,3.5,-,N/A,,Clear,260,2012-11-27 20:55:00
2:15 PM,55.4,44.6,67,29.94,10.0,WSW,4.6,-,N/A,,Clear,250,2012-11-27 21:15:00
2:35 PM,55.4,44.6,67,29.93,10.0,Calm,Calm,-,N/A,,Clear,0,2012-11-27 21:35:00
3:15 PM,57.2,44.6,63,29.93,10.0,Calm,Calm,-,N/A,,Clear,0,2012-11-27 22:15:00
3:35 PM,55.4,46.4,72,29.92,10.0,West,3.5,-,N/A,,Clear,260,2012-11-27 22:35:00
3:55 PM,55.4,48.2,77,29.92,10.0,WNW,4.6,-,N/A,,Clear,300,2012-11-27 22:55:00
4:15 PM,55.4,48.2,77,29.93,7.0,West,3.5,-,N/A,,Clear,270,2012-11-27 23:15:00
4:55 PM,53.6,46.4,77,29.93,10.0,Calm,Calm,-,N/A,,Clear,0,2012-11-27 23:55:00
5:15 PM,53.6,46.4,77,29.93,10.0,Calm,Calm,-,N/A,,Clear,0,2012-11-28 00:15:00
5:35 PM,50.0,46.4,87,29.93,10.0,SSE,4.6,-,N/A,,Clear,160,2012-11-28 00:35:00
5:55 PM,51.8,44.6,76,29.93,10.0,SE,4.6,-,N/A,,Clear,130,2012-11-28 00:55:00
6:15 PM,50.0,44.6,82,29.91,10.0,ENE,5.8,-,N/A,,Clear,70,2012-11-28 01:15:00
6:35 PM,48.2,44.6,87,29.92,10.0,Calm,Calm,-,N/A,,Clear,0,2012-11-28 01:35:00
6:55 PM,48.2,46.4,93,29.91,10.0,ESE,3.5,-,N/A,,Clear,110,2012-11-28 01:55:00
7:15 PM,48.2,44.6,87,29.92,10.0,Calm,Calm,-,N/A,,Clear,0,2012-11-28 02:15:00
7:35 PM,46.4,42.8,87,29.92,10.0,Calm,Calm,-,N/A,,Clear,0,2012-11-28 02:35:00
7:55 PM,46.4,44.6,93,29.92,10.0,SSE,3.5,-,N/A,,Clear,160,2012-11-28 02:55:00
8:15 PM,46.4,42.8,87,29.91,10.0,SE,3.5,-,N/A,,Clear,130,2012-11-28 03:15:00
8:35 PM,46.4,44.6,93,29.90,10.0,Calm,Calm,-,N/A,,Clear,0,2012-11-28 03:35:00
8:55 PM,44.6,42.8,93,29.90,10.0,Calm,Calm,-,N/A,,Clear,0,2012-11-28 03:55:00
9:15 PM,44.6,42.8,93,29.88,10.0,Calm,Calm,-,N/A,,Clear,0,2012-11-28 04:15:00
9:35 PM,44.6,42.8,93,29.87,10.0,Calm,Calm,-,N/A,,Clear,0,2012-11-28 04:35:00
9:55 PM,44.6,42.8,93,29.87,10.0,Calm,Calm,-,N/A,,Clear,0,2012-11-28 04:55:00
10:15 PM,44.6,42.8,93,29.87,10.0,SE,3.5,-,N/A,,Clear,130,2012-11-28 05:15:00
10:55 PM,44.6,42.8,93,29.86,10.0,Calm,Calm,-,N/A,,Clear,0,2012-11-28 05:55:00
11:15 PM,46.4,42.8,87,29.86,10.0,ESE,4.6,-,N/A,,Clear,120,2012-11-28 06:15:00
11:35 PM,44.6,42.8,93,29.85,10.0,ESE,4.6,-,N/A,,Clear,110,2012-11-28 06:35:00
11:55 PM,44.6,41.0,87,29.84,10.0,Calm,Calm,-,N/A,,Clear,0,2012-11-28 06:55:00